CHUTIAN-2 A

Last updated on Wed Dec 10 2025 00:02:05 GMT+0000 (Coordinated Universal Time)

1 66409U 25256A 25343.62028947 .00001647 00000+0 43679-3 0 9999 2 66409 98.2770 48.4355 0013557 187.1977 172.9025 14.49935752 4425
UTC large
Height (km)
Speed (km/s)
/
Latitude / Longitude
Inclination (degrees)
Orbital Period (minutes)
Azimuth
Elevation
Range (km)
Doppler Factor

Next 0 passes for location: London (51.5072 / 0.1276)

Sorry there are no passes over London.